TimeEST,TemperatureF,Dew PointF,Humidity,Sea Level PressureIn,VisibilityMPH,Wind Direction,Wind SpeedMPH,Gust SpeedMPH,PrecipitationIn,Events,Conditions,WindDirDegrees,DateUTC
12:55 AM,70.9,70.2,98,30.19,10.0,East,6.9,-,N/A,,Overcast,100,2013-01-09 05:55:00
1:55 AM,69.6,69.1,98,30.20,10.0,East,6.9,-,N/A,,Partly Cloudy,80,2013-01-09 06:55:00
2:55 AM,68.2,68.2,100,30.19,10.0,East,8.1,-,N/A,,Clear,100,2013-01-09 07:55:00
3:55 AM,68.4,68.4,100,30.19,10.0,East,9.2,-,N/A,,Clear,100,2013-01-09 08:55:00
4:47 AM,68.0,68.0,100,30.18,8.0,East,8.1,-,N/A,,Scattered Clouds,80,2013-01-09 09:47:00
4:55 AM,67.3,67.3,100,30.18,9.0,East,8.1,-,N/A,,Partly Cloudy,80,2013-01-09 09:55:00
5:47 AM,68.0,68.0,100,30.19,9.0,ESE,9.2,-,N/A,,Clear,110,2013-01-09 10:47:00
5:55 AM,68.0,68.0,100,30.19,10.0,East,9.2,-,N/A,,Clear,100,2013-01-09 10:55:00
6:04 AM,68.0,68.0,100,30.20,9.0,ESE,9.2,-,N/A,,Clear,110,2013-01-09 11:04:00
6:05 AM,68.0,68.0,100,30.20,9.0,ESE,9.2,-,N/A,,Clear,110,2013-01-09 11:05:00
6:55 AM,68.2,68.2,100,30.21,10.0,ESE,8.1,-,N/A,,Partly Cloudy,110,2013-01-09 11:55:00
7:55 AM,68.5,68.5,100,30.23,10.0,ESE,6.9,-,N/A,,Clear,110,2013-01-09 12:55:00
8:55 AM,71.4,71.4,100,30.26,10.0,ESE,6.9,-,N/A,,Scattered Clouds,110,2013-01-09 13:55:00
9:55 AM,75.7,72.7,90,30.28,10.0,SE,10.4,19.6,N/A,,Clear,140,2013-01-09 14:55:00
10:55 AM,78.6,72.1,80,30.29,10.0,SE,11.5,-,N/A,,Partly Cloudy,140,2013-01-09 15:55:00
11:26 AM,78.8,71.6,78,30.28,10.0,SSE,8.1,-,N/A,,Mostly Cloudy,150,2013-01-09 16:26:00
11:43 AM,80.6,71.6,74,30.27,10.0,SE,9.2,-,N/A,,Scattered Clouds,130,2013-01-09 16:43:00
11:55 AM,81.5,72.3,74,30.27,10.0,SE,8.1,-,N/A,,Scattered Clouds,130,2013-01-09 16:55:00
12:55 PM,82.9,70.5,66,30.24,10.0,SSE,11.5,-,N/A,,Clear,150,2013-01-09 17:55:00
1:55 PM,84.0,69.6,62,30.22,10.0,SSE,8.1,-,N/A,,Clear,150,2013-01-09 18:55:00
2:55 PM,85.5,69.4,59,30.22,10.0,SE,5.8,-,N/A,,Scattered Clouds,140,2013-01-09 19:55:00
3:55 PM,84.0,68.4,59,30.21,10.0,SE,6.9,-,N/A,,Clear,130,2013-01-09 20:55:00
4:55 PM,83.5,67.6,59,30.22,10.0,SE,5.8,-,N/A,,Clear,130,2013-01-09 21:55:00
5:55 PM,78.6,67.1,68,30.22,10.0,ESE,6.9,-,N/A,,Clear,120,2013-01-09 22:55:00
6:55 PM,75.0,64.9,71,30.24,10.0,East,5.8,-,N/A,,Clear,90,2013-01-09 23:55:00
7:55 PM,74.1,66.7,78,30.25,10.0,ESE,10.4,-,N/A,,Clear,120,2013-01-10 00:55:00
8:55 PM,74.1,69.3,85,30.26,10.0,ESE,10.4,-,N/A,,Clear,120,2013-01-10 01:55:00
9:55 PM,73.0,70.9,93,30.28,10.0,SE,9.2,-,N/A,,Clear,130,2013-01-10 02:55:00
10:55 PM,71.8,71.1,98,30.29,10.0,ESE,9.2,-,N/A,,Clear,110,2013-01-10 03:55:00
11:55 PM,70.5,70.5,100,30.30,10.0,ESE,6.9,-,N/A,,Clear,110,2013-01-10 04:55:00